GFSGBSN_850_temp_000.txt.gz
Temp
11 11 12 12 12 12 12 12 12 12 12 12 12 12 12 12 13 14 14 15 15 16 16 17 17 18 18 18 21 21 21 22 23 23 22 24 25 26 26 27 26 26 26 25 25 24 25
11 11 11 12 12 12 12 12 12 12 12 12 12 12 12 13 14 14 15 15 16 16 17 17 18 19 19 19 21 21 21 22 23 24 24 25 26 26 26 27 26 26 25 25 25 24 24
10 11 11 11 12 12 12 12 12 12 12 12 12 12 13 13 14 15 15 16 16 17 17 17 18 19 18 21 21 22 22 22 23 23 24 24 25 25 26 26 26 25 25 25 25 25 25
10 11 11 11 12 12 12 12 12 12 12 12 13 13 13 14 15 16 16 16 16 17 17 18 19 19 19 21 21 21 22 23 23 23 23 23 24 25 25 25 25 25 26 24 25 25 25
10 11 11 11 12 12 13 13 13 13 12 13 13 13 14 15 16 16 16 16 17 17 17 18 19 19 21 21 21 21 22 23 23 23 23 23 24 25 25 25 24 25 24 25 24 26 26
10 10 11 11 12 13 13 13 13 13 13 13 13 14 14 15 16 16 16 17 17 18 18 19 19 19 21 22 21 21 22 22 23 23 23 24 25 25 25 25 23 23 25 25 25 25 25
10 10 11 11 12 13 13 13 13 13 13 13 14 14 15 15 16 16 17 17 18 18 18 21 22 22 22 21 21 22 22 22 23 24 24 25 25 23 23 24 24 25 25 25 25 24 24
10 10 11 11 12 13 13 13 13 13 14 14 14 15 15 16 16 16 17 17 19 20 20 21 21 21 21 22 22 22 22 23 23 24 25 25 23 23 24 24 24 24 24 24 25 24 24
10 10 11 11 12 12 13 14 14 14 15 15 15 15 16 16 16 17 17 18 18 20 21 21 21 21 21 22 22 22 22 24 24 24 25 22 22 23 23 23 23 24 23 22 22 24 24
10 10 11 11 12 12 13 14 14 15 15 15 15 16 16 17 17 17 18 18 19 19 21 21 22 21 21 22 22 21 21 22 24 24 24 22 22 22 23 23 22 22 22 21 22 22 22
10 10 11 11 11 12 13 14 14 15 15 15 15 16 16 17 16 18 17 19 19 19 18 22 22 21 21 22 22 22 21 22 23 23 23 22 22 22 22 21 21 21 21 21 22 22 22
10 10 10 11 11 12 13 14 15 15 15 15 16 16 16 17 16 17 18 19 19 17 18 21 22 22 22 22 22 22 22 22 22 23 23 22 22 21 21 21 21 22 22 22 22 22 20
10 10 10 11 11 12 12 14 15 15 15 15 16 16 16 16 17 18 18 19 18 18 22 21 21 22 22 21 22 23 22 22 22 21 21 22 21 21 21 21 22 22 22 19 19 19 19
10 10 10 11 11 12 12 13 14 15 15 15 16 16 16 16 16 17 18 19 18 22 22 23 22 22 21 22 21 22 22 21 21 21 22 21 19 21 21 20 20 21 21 18 17 17 19
10 10 10 11 11 12 12 13 14 15 15 15 16 16 16 16 17 17 18 17 19 22 23 22 22 21 21 21 21 21 20 20 19 20 20 20 19 20 20 20 20 20 18 20 17 16 16
10 10 10 11 11 11 12 13 14 14 15 15 15 15 16 16 17 17 18 17 21 22 23 23 21 22 21 21 21 21 21 20 19 19 20 19 19 20 20 20 20 20 20 18 18 15 15
10 10 10 11 11 11 12 13 13 14 15 15 16 17 16 16 17 18 18 20 21 21 21 22 22 21 22 21 22 21 20 19 19 19 20 19 19 19 20 19 19 20 20 19 19 17 15
10 10 11 11 11 12 12 13 14 14 15 15 16 17 16 16 18 19 20 21 20 20 20 21 22 22 21 21 20 20 19 18 18 19 18 17 17 16 19 19 19 19 19 19 15 15 15
10 10 11 11 11 12 12 13 14 14 15 15 17 16 16 16 17 16 19 20 21 20 21 21 20 20 21 20 18 19 17 16 17 17 16 17 17 16 18 18 19 19 19 18 16 13 13
10 10 11 11 12 12 12 13 14 14 15 15 18 16 17 16 18 19 19 19 18 19 19 20 20 20 20 19 20 18 16 16 16 15 14 14 18 16 15 17 18 17 18 18 18 14 14
9 10 11 11 12 12 12 13 14 15 15 15 18 18 18 15 17 20 20 20 19 18 19 19 20 20 19 18 19 18 18 16 16 14 16 17 15 15 16 17 17 17 17 18 17 17 14
9 10 11 11 12 12 13 13 14 15 15 15 17 18 17 19 19 20 16 20 20 20 19 19 19 20 20 16 18 18 18 18 17 16 17 15 12 10 12 17 17 15 16 17 17 18 17
9 10 10 11 12 12 13 13 14 15 15 16 16 17 18 16 19 19 18 19 20 19 17 20 20 19 15 17 17 16 16 16 17 16 14 10 10 11 12 12 11 11 13 17 17 17 16
9 10 10 11 12 12 13 13 14 15 15 15 16 17 16 15 18 18 19 20 20 18 18 19 19 16 15 14 13 13 14 14 15 15 14 6 8 9 9 8 11 16 17 17 16 17 17
9 10 10 11 11 12 12 13 14 15 15 16 16 16 15 9 16 18 19 19 18 18 18 16 16 15 15 15 12 11 10 8 10 15 14 12 10 7 9 11 13 14 15 14 13 13 15
8 9 10 11 11 12 12 13 13 14 15 15 15 16 15 14 15 18 19 17 16 15 14 13 13 14 15 13 10 8 13 14 12 12 12 11 8 10 8 8 10 14 16 14 14 11 12
8 9 9 10 11 11 12 13 13 13 14 15 15 16 16 15 16 17 17 16 16 15 15 13 12 13 14 9 6 11 13 15 13 10 7 7 8 9 9 8 10 14 14 13 11 10 9
7 8 9 10 10 11 12 12 13 13 13 14 14 15 16 15 13 14 16 17 16 16 13 14 13 12 11 7 8 11 9 12 13 14 9 9 8 7 8 8 9 13 13 10 10 9 8
6 7 8 9 10 10 11 12 12 13 13 13 13 14 15 15 13 13 14 15 15 14 15 13 15 13 12 11 9 10 7 6 9 10 16 13 12 12 11 11 13 13 11 10 9 8 7

GFSGBSN_850_temp_003.txt.gz
Temp
10 11 11 12 12 12 12 12 13 12 12 12 12 12 12 13 13 14 14 14 15 15 16 16 16 16 16 18 19 21 21 22 22 22 23 23 23 24 21 22 25 22 22 24 24 24 24
10 10 10 11 12 12 12 12 13 12 12 12 12 12 13 13 14 14 14 15 16 16 16 16 16 17 17 17 21 21 21 22 23 23 23 24 24 25 25 24 23 25 24 23 24 24 24
10 10 10 11 11 12 12 12 12 12 12 12 13 13 13 13 14 14 15 16 16 16 16 16 16 17 17 20 21 21 22 22 23 23 23 24 24 24 25 23 25 25 22 21 23 24 22
10 10 10 11 11 12 12 12 13 12 12 12 13 13 13 14 15 15 16 16 16 16 16 16 17 17 19 20 21 22 22 22 23 23 23 24 24 24 25 25 25 23 21 19 21 22 23
9 10 11 11 11 12 13 13 13 13 13 12 13 13 14 15 15 16 16 16 16 16 17 17 17 18 19 21 21 21 22 22 23 23 23 24 24 24 25 20 20 21 18 20 21 23 22
10 10 10 11 11 12 13 13 13 13 13 13 13 14 14 15 15 16 16 16 16 16 17 17 18 17 20 21 21 22 22 22 23 23 23 24 24 20 18 18 19 20 20 20 19 22 23
10 10 10 11 12 12 13 13 13 14 13 13 14 14 15 15 16 16 16 16 17 18 17 19 20 20 22 22 21 22 22 22 23 23 20 23 18 18 21 22 22 22 21 20 20 23 23
9 10 10 11 12 12 13 14 14 14 14 14 14 14 15 16 16 16 16 17 17 18 19 20 21 21 22 22 22 22 22 22 23 20 21 20 18 21 22 23 22 23 21 19 21 23 22
9 10 10 11 11 12 13 14 14 14 14 14 15 15 16 16 16 17 17 17 17 19 19 21 21 21 21 22 22 22 22 22 22 21 19 18 21 22 22 19 20 20 19 19 20 20 21
9 10 10 11 11 12 13 14 15 14 14 14 15 16 16 16 17 17 17 17 18 19 15 20 21 21 21 22 21 22 22 22 23 20 19 20 22 22 21 19 19 19 19 20 20 19 17
9 10 10 11 11 12 13 14 15 14 15 15 15 15 16 16 16 17 17 18 19 20 11 20 21 21 21 21 22 21 22 22 20 22 20 20 19 19 19 19 20 19 20 19 20 18 19
10 10 10 11 11 12 13 14 15 15 15 15 15 16 16 16 16 17 18 19 19 11 14 20 21 21 21 22 22 22 22 22 23 20 19 20 21 19 19 20 21 20 19 19 19 17 13
10 10 10 11 11 12 13 14 15 15 15 15 16 16 16 16 16 18 18 19 11 11 20 19 20 21 20 21 20 21 20 18 17 18 18 19 19 20 21 19 20 18 17 12 13 10 12
10 10 10 11 12 12 13 14 15 15 15 15 15 16 16 16 17 18 18 14 15 19 19 21 21 21 20 21 21 21 19 17 17 17 18 17 14 18 19 18 18 17 17 11 14 10 14
9 10 11 11 11 12 12 14 14 15 15 15 15 16 16 17 17 17 17 10 13 18 21 21 21 20 20 21 20 19 17 17 17 16 17 16 17 18 18 19 18 18 14 18 13 12 11
10 10 11 11 11 12 12 13 14 14 15 15 15 16 16 17 17 17 12 12 19 21 22 21 19 20 18 19 19 19 17 17 18 18 18 18 16 18 19 19 19 18 19 13 11 12 12
10 10 11 11 11 11 12 13 14 14 15 15 15 16 16 16 17 17 10 14 20 20 20 20 20 21 19 19 19 18 17 17 17 18 17 15 15 17 19 16 16 16 17 16 15 10 9
10 10 11 11 11 11 12 13 13 14 15 15 15 13 16 16 15 15 14 19 20 20 20 20 19 20 19 20 18 17 16 16 17 17 16 16 13 9 16 18 19 18 17 15 8 12 7
10 10 11 11 11 11 12 13 13 14 15 15 16 15 15 16 9 7 17 19 20 19 20 20 19 19 19 18 16 15 15 16 16 14 13 14 12 9 13 15 17 18 18 15 11 7 10
10 10 11 11 11 11 12 13 13 14 15 14 15 10 15 15 16 16 18 18 18 19 19 20 19 20 18 17 17 15 14 15 15 14 14 14 14 11 9 14 15 16 17 16 12 7 9
10 10 11 11 11 12 12 12 13 14 14 14 15 13 16 7 12 15 17 17 17 17 19 19 19 18 17 16 16 14 14 14 15 15 15 13 10 11 13 14 15 16 15 15 15 13 10
10 10 10 11 11 12 12 13 14 14 14 14 15 16 17 17 17 17 14 18 17 18 17 18 18 18 16 13 16 14 14 14 14 15 15 10 8 8 11 13 12 12 12 12 14 15 14
9 10 10 11 11 12 13 13 14 15 15 15 16 17 18 14 15 13 13 19 18 17 18 18 17 12 10 13 14 15 16 16 14 14 9 6 4 5 8 8 7 8 12 13 15 15 15
9 9 10 11 11 12 13 13 14 14 15 15 16 17 17 8 8 12 18 18 16 18 16 16 16 12 14 15 15 15 15 14 14 12 11 4 5 3 4 4 7 12 14 14 13 13 12
9 9 10 11 11 12 13 13 14 15 15 16 16 16 16 6 13 17 18 16 14 15 14 15 15 15 15 15 6 8 5 6 7 12 10 8 3 2 5 4 8 12 14 13 12 11 10
8 9 10 11 11 12 13 13 14 14 15 16 16 16 16 14 10 18 17 15 9 9 9 13 14 15 15 7 4 6 6 9 9 11 7 7 3 4 2 4 4 9 13 14 13 7 9
8 9 9 10 11 12 12 13 13 14 15 15 16 16 16 16 15 16 14 12 15 13 7 12 13 13 14 4 5 5 7 11 8 7 4 2 3 3 4 2 5 9 13 13 7 7 8
8 8 9 10 11 11 12 13 13 13 14 15 15 15 16 15 15 16 16 16 15 14 7 13 9 11 5 4 4 4 4 5 7 9 6 5 4 5 5 5 5 12 12 9 8 8 8
7 8 9 9 10 11 12 13 13 13 13 14 14 15 16 16 14 14 15 15 15 15 15 13 13 11 11 4 4 5 4 4 3 6 10 8 6 5 6 5 10 13 12 10 9 8 7

GFSGBSN_850_temp_006.txt.gz
Temp
12 12 11 11 11 12 12 12 12 12 12 12 12 12 12 12 12 13 14 14 14 15 15 15 15 15 16 16 19 21 21 21 21 21 21 21 21 21 20 20 22 19 21 23 23 23 23
12 12 11 11 11 12 12 12 12 12 12 12 12 12 12 13 13 13 14 14 14 15 15 15 15 16 16 15 20 21 21 21 22 22 22 22 22 23 22 21 21 22 22 23 23 23 23
11 11 11 11 11 12 12 12 12 12 12 12 12 12 12 13 13 14 14 15 15 15 15 15 15 16 16 19 21 21 21 21 22 22 23 23 24 23 24 21 23 23 20 21 21 22 22
11 11 11 11 10 11 12 12 12 12 12 12 12 12 13 13 14 14 14 15 15 15 15 15 15 16 18 20 20 21 22 22 22 23 23 23 24 24 24 24 23 21 18 18 20 20 22
11 11 11 10 11 11 12 12 12 13 12 12 12 13 13 14 14 14 15 15 15 15 15 16 16 16 18 20 21 21 22 22 23 23 23 24 24 23 23 18 17 16 18 18 20 20 21
10 10 11 11 11 11 12 13 13 13 12 12 12 13 14 15 15 15 15 15 15 15 16 16 16 16 20 20 21 22 22 22 22 23 23 23 23 17 16 16 17 18 18 17 18 19 20
10 10 10 11 11 11 12 13 13 13 13 13 13 14 14 15 15 15 16 15 16 16 16 19 19 19 20 21 21 22 22 22 22 23 20 21 17 17 20 20 20 20 19 17 19 20 21
10 10 10 11 11 11 12 13 13 13 13 13 14 14 15 16 16 16 16 17 16 16 17 19 20 19 20 22 21 22 22 22 22 20 20 17 18 20 20 19 19 20 19 18 19 20 20
9 10 10 11 11 11 12 13 14 14 13 14 14 15 16 16 16 16 17 17 17 17 17 20 20 21 21 21 21 22 22 22 21 20 18 17 19 21 19 17 18 17 17 19 19 19 17
9 10 10 11 11 11 13 14 14 14 14 14 15 15 15 16 16 16 17 17 17 17 13 19 20 21 21 21 21 21 22 21 20 17 18 19 19 19 18 18 18 17 19 19 19 17 16
9 10 10 11 11 12 13 14 14 14 14 14 15 16 16 16 16 17 17 17 18 18 11 18 20 21 21 21 21 21 22 22 20 21 18 18 18 17 18 19 19 18 19 19 19 16 17
9 10 10 11 11 12 13 14 14 15 15 15 15 15 16 16 16 17 17 18 18 10 13 19 20 20 20 21 21 21 22 21 21 18 17 18 19 19 19 19 20 19 19 16 15 14 12
9 10 10 11 11 11 13 14 15 15 15 15 15 15 15 16 17 17 18 18 10 10 18 19 19 19 20 20 20 20 17 16 15 16 17 17 17 18 19 18 17 16 14 11 12 10 11
9 10 10 11 11 11 13 14 15 15 15 15 15 15 15 16 17 18 18 13 14 16 18 19 19 18 19 20 17 17 17 15 16 16 15 15 14 17 18 18 18 17 15 10 13 10 13
9 10 10 11 11 11 13 14 15 15 15 15 15 15 16 16 17 17 17 9 12 15 19 19 19 18 19 20 18 16 16 15 16 16 16 15 16 18 18 18 18 17 14 15 11 9 10
9 10 11 10 11 11 13 13 14 15 15 15 15 15 16 16 17 17 11 10 15 19 19 19 18 18 17 18 18 16 16 16 16 15 16 16 15 17 18 18 17 17 17 13 9 12 11
9 10 10 10 10 11 12 13 14 15 15 15 15 16 16 16 17 17 9 11 18 19 20 19 19 18 18 17 17 16 15 15 15 16 15 15 14 15 16 15 16 15 15 13 12 8 9
10 10 10 10 10 11 12 13 14 15 14 15 15 11 16 16 15 11 12 16 19 19 20 19 18 18 18 17 15 14 14 14 15 15 15 14 11 8 16 17 18 17 16 12 8 12 6
10 10 10 10 10 11 12 13 14 14 14 14 15 14 14 15 8 4 13 17 19 19 19 19 18 18 18 16 13 14 14 14 15 13 14 14 10 8 12 13 14 16 16 12 9 6 10
9 10 10 10 11 11 12 13 13 14 14 14 15 9 14 14 14 13 15 17 17 18 18 18 18 18 16 16 13 13 13 14 15 14 14 13 11 10 9 13 12 15 15 13 11 6 8
10 9 10 11 11 11 12 13 13 14 14 15 15 12 15 6 10 13 15 16 17 17 18 19 18 17 16 15 14 12 13 14 14 14 14 11 10 11 12 12 13 14 14 13 13 11 10
9 9 10 11 11 11 12 12 13 14 14 14 15 14 15 14 16 14 12 15 15 17 17 17 17 15 14 12 13 12 12 12 13 14 11 8 7 7 12 10 9 12 11 11 12 13 13
9 9 10 11 11 11 12 13 13 14 14 14 15 15 17 10 11 11 10 15 15 16 17 17 13 10 10 12 13 14 14 14 13 12 7 5 3 5 7 5 6 7 12 13 14 11 13
9 10 10 11 11 12 12 13 13 14 15 15 15 16 16 7 7 11 15 16 15 15 13 13 15 12 14 14 15 14 13 12 11 9 9 4 4 1 4 3 7 11 12 12 9 10 8
9 10 10 11 11 12 12 13 14 15 15 15 15 16 17 4 9 15 14 12 13 14 12 12 14 15 14 14 5 8 5 7 6 8 7 6 1 2 4 3 7 11 13 12 12 9 8
9 10 10 11 11 12 12 13 14 15 15 16 16 16 17 14 9 15 12 13 7 8 8 12 13 13 15 4 3 5 6 9 8 9 6 5 1 3 3 4 5 8 12 13 12 7 8
9 9 10 10 11 12 12 13 14 15 15 16 16 16 16 15 14 15 12 12 13 10 6 11 13 13 13 -0 2 5 6 9 7 6 4 2 0 2 2 0 4 7 11 12 8 8 8
9 9 10 10 11 12 12 13 14 14 15 15 15 16 16 15 13 15 16 15 14 14 7 12 10 10 4 3 1 4 4 5 6 7 6 5 3 2 1 1 5 10 11 8 8 9 9
8 9 9 10 10 11 12 13 13 14 14 15 15 15 16 16 13 14 15 16 16 16 15 13 13 10 11 4 3 5 4 4 2 6 8 8 6 5 6 6 9 12 13 13 12 11 8

GFSGBSN_850_temp_009.txt.gz
Temp
9 12 12 12 12 12 12 13 13 12 12 12 12 12 12 12 12 12 12 12 13 14 14 14 15 15 15 15 18 20 20 20 20 20 20 19 19 19 19 19 20 20 20 21 22 22 22
10 11 12 11 12 12 12 13 12 12 12 12 12 12 12 12 12 12 12 13 13 13 14 14 15 15 15 15 20 20 20 20 20 20 21 19 21 21 21 20 19 21 20 21 22 22 22
10 11 12 11 11 12 12 12 12 12 12 12 12 12 12 12 12 13 13 13 13 14 14 14 15 15 16 19 20 20 20 21 21 22 22 21 21 21 21 18 22 21 19 20 21 21 21
10 11 11 11 11 12 12 12 12 12 12 12 12 12 12 12 12 13 13 13 14 14 14 15 15 16 17 20 20 21 21 21 22 22 22 22 23 22 22 21 20 19 17 18 19 20 20
10 11 11 11 11 12 12 12 12 12 12 12 12 12 12 13 13 13 13 14 14 14 15 15 15 15 18 20 20 21 21 22 22 22 22 23 23 22 22 17 16 15 17 19 20 19 19
10 11 11 10 11 12 12 12 12 12 12 12 12 12 13 13 13 14 14 14 15 15 15 15 15 16 20 20 21 21 21 22 23 22 23 23 22 16 15 15 16 18 19 17 18 19 18
10 11 11 10 11 12 12 13 12 12 12 12 12 13 14 13 14 14 15 15 15 15 15 18 18 19 20 20 21 21 22 22 22 22 18 19 16 17 18 19 19 20 18 17 16 19 14
9 10 10 10 11 11 12 13 12 13 12 12 13 13 14 14 15 15 15 16 16 16 16 19 19 18 19 20 20 21 22 22 21 18 19 16 17 19 17 17 19 18 18 17 18 16 14
9 10 10 10 11 11 12 13 13 13 13 13 13 13 14 15 15 15 16 16 16 16 15 19 20 20 21 21 21 21 21 21 20 19 18 17 19 20 18 16 17 16 17 18 17 15 15
9 9 10 10 10 11 12 13 13 13 13 13 14 14 15 15 15 16 16 16 16 17 12 17 20 21 21 21 20 21 21 21 19 16 17 17 17 18 17 17 17 17 18 18 16 15 14
9 9 9 10 10 11 12 13 13 13 13 13 14 15 16 16 16 17 16 17 17 17 10 17 20 21 21 21 21 20 21 21 19 18 17 17 17 17 17 18 18 18 18 18 18 14 14
9 9 10 10 10 11 12 13 13 13 14 14 14 15 16 16 16 17 17 18 17 9 12 18 20 20 20 20 20 20 20 21 19 16 16 17 18 18 18 18 18 18 16 14 13 13 11
9 9 9 10 10 11 12 13 14 14 14 14 14 16 16 16 16 17 18 18 9 9 17 17 18 19 19 19 18 17 16 15 16 15 15 16 16 16 18 18 17 15 14 11 12 9 11
9 9 9 10 10 11 12 13 14 14 14 14 15 15 16 16 16 17 18 12 14 15 16 18 18 18 18 18 16 16 16 14 15 15 14 14 13 16 17 17 17 16 14 11 13 9 13
9 9 9 10 10 11 12 13 14 14 14 15 15 15 16 16 17 17 17 8 11 14 18 18 17 17 18 18 17 15 15 15 15 15 15 14 15 17 17 17 17 17 13 13 9 7 9
8 9 9 10 10 11 12 13 14 14 15 15 15 15 16 16 17 17 10 10 14 16 18 18 17 17 17 17 17 15 16 15 15 14 15 15 15 16 17 17 16 16 15 13 8 11 10
9 9 9 10 10 11 12 13 14 14 15 15 15 15 16 16 17 17 9 10 15 18 19 19 17 17 17 16 15 15 14 14 14 15 14 14 13 14 15 15 15 14 14 11 10 7 8
9 8 9 10 10 11 12 13 14 14 14 14 15 10 15 16 14 8 11 13 17 18 19 18 17 18 16 15 14 14 14 14 13 14 14 13 10 8 15 15 15 16 14 11 7 11 5
9 9 9 9 10 11 12 13 13 14 14 14 15 13 14 15 8 3 12 15 17 18 17 18 17 17 16 13 13 13 13 13 14 13 13 13 9 8 11 13 13 16 14 10 8 6 8
9 9 9 10 11 11 11 13 13 14 14 15 15 8 13 14 14 12 14 15 16 17 17 18 17 16 15 13 12 12 13 13 14 13 13 12 10 10 9 12 11 14 14 12 10 6 8
8 9 9 10 10 11 11 13 13 14 14 15 15 11 13 6 8 11 13 15 16 16 17 18 17 16 15 14 13 12 13 13 13 13 11 10 10 11 11 10 12 13 14 11 11 10 9
8 9 10 10 10 11 12 12 13 14 13 14 14 13 13 11 15 12 11 14 15 16 17 16 15 14 15 11 13 11 12 12 13 11 9 7 7 7 10 8 8 11 11 10 10 11 10
9 9 10 10 11 11 11 12 13 13 13 14 14 14 16 7 9 10 9 14 14 15 15 15 13 11 11 11 12 12 12 12 12 11 6 5 3 5 7 5 6 7 9 11 12 11 10
9 9 9 10 11 11 11 12 13 13 14 14 15 15 15 5 6 9 13 14 13 14 13 13 14 11 12 13 13 13 12 10 9 7 8 3 2 0 3 3 7 11 10 10 11 10 8
9 9 9 11 11 11 11 12 13 14 14 15 15 15 16 4 9 12 12 11 12 12 11 11 13 14 14 14 6 8 5 7 5 6 5 5 1 2 3 3 7 11 10 9 10 9 7
9 9 10 11 11 11 11 12 13 14 14 15 15 15 16 13 9 14 11 12 7 8 7 11 11 13 13 4 3 5 7 9 8 9 5 4 0 3 2 4 6 9 10 12 11 7 8
9 9 10 10 10 11 11 12 13 14 14 14 15 16 17 14 13 14 11 12 13 9 5 11 12 12 12 -0 0 4 6 7 7 5 3 2 -1 1 -1 0 4 6 10 12 9 8 8
9 10 10 10 10 11 11 12 14 15 15 15 15 16 16 14 13 14 15 15 13 13 7 11 9 10 4 4 2 2 2 4 5 7 5 5 3 1 1 1 7 9 9 8 9 11 12
9 10 10 10 10 11 12 12 13 14 14 15 16 15 16 16 13 13 14 15 15 16 15 12 13 10 11 3 1 2 3 3 2 6 7 6 6 5 5 6 9 10 11 13 12 13 11

GFSGBSN_850_temp_015.txt.gz
Temp
11 11 11 10 11 13 13 13 13 13 12 12 12 12 12 12 12 12 12 12 13 12 13 13 13 13 13 14 17 19 19 19 19 18 19 18 18 18 18 17 18 18 19 19 19 20 20
10 10 10 10 10 12 12 12 12 12 12 12 12 12 13 12 12 11 12 12 12 12 13 13 13 13 13 12 18 19 19 19 19 19 18 18 19 19 19 18 19 19 19 18 18 19 19
10 10 10 10 10 12 12 12 12 12 12 12 12 12 12 11 11 11 11 12 13 12 13 13 13 13 14 17 19 19 19 19 19 19 20 19 19 18 18 18 19 19 20 19 18 19 19
10 10 10 9 9 12 12 12 12 12 11 12 12 12 12 11 11 11 11 12 13 13 13 13 13 14 16 19 19 20 20 20 20 19 18 18 18 18 18 19 18 19 18 20 19 19 18
9 10 10 9 9 10 11 12 12 12 11 12 12 12 11 11 11 11 12 13 13 13 13 13 13 13 17 19 20 20 20 20 20 20 18 19 18 18 18 18 18 17 19 18 19 16 18
9 9 10 10 10 10 11 12 12 11 11 12 11 12 11 11 11 12 12 13 13 13 13 13 13 13 19 19 20 20 21 21 20 19 18 17 18 18 17 19 19 19 18 18 19 17 16
9 9 9 9 9 10 11 12 12 11 11 12 11 11 11 11 12 12 12 13 13 13 13 16 16 16 19 19 20 20 21 21 21 21 18 17 19 19 19 18 18 18 18 18 16 14 14
8 9 9 9 9 10 10 11 12 11 11 12 11 11 11 11 12 13 13 14 14 15 15 17 17 17 18 18 19 20 21 21 20 18 17 18 18 17 17 17 17 17 17 15 15 14 14
8 8 9 9 9 10 10 11 11 11 11 11 12 11 12 11 12 13 14 15 14 14 14 17 18 18 19 19 19 20 21 20 19 18 17 18 18 17 17 16 17 16 17 16 16 14 14
7 7 8 9 9 9 10 11 11 11 11 11 12 11 12 12 12 14 15 15 15 14 13 16 18 19 19 19 19 20 20 20 17 16 16 17 16 17 17 17 17 17 16 15 15 16 17
5 8 8 8 9 9 10 11 11 11 11 11 12 12 12 12 14 15 15 15 15 14 12 16 19 19 19 19 19 19 20 20 17 16 17 16 16 17 17 16 16 16 15 16 15 16 16
4 7 7 8 8 9 10 11 10 11 11 11 12 12 12 12 14 15 15 15 15 11 13 17 18 18 18 18 17 19 19 19 18 15 15 15 16 16 17 15 15 14 16 15 14 15 16
4 6 7 8 8 8 9 10 10 11 11 11 11 12 13 13 15 15 15 15 11 12 15 16 17 18 17 16 16 15 15 15 17 16 15 16 16 15 16 17 16 16 16 15 16 15 15
3 5 6 7 8 8 9 10 10 10 10 11 11 12 13 14 14 15 15 13 14 14 14 16 16 16 16 16 15 14 15 15 14 15 15 16 16 16 16 16 17 15 16 15 14 14 15
3 4 6 7 7 8 9 9 10 10 10 11 11 12 13 14 14 15 15 9 12 12 15 15 16 16 16 16 15 14 13 14 14 14 16 15 15 15 15 15 16 15 15 13 11 9 13
3 4 5 6 7 7 8 9 10 10 10 11 11 12 13 14 14 14 11 10 13 13 15 16 16 16 15 16 15 14 15 13 14 13 14 14 15 14 15 15 14 16 13 15 13 13 13
2 4 5 6 7 7 8 9 9 9 11 10 10 11 14 14 14 15 10 11 13 15 16 16 15 15 15 15 14 14 14 13 13 14 14 13 15 14 14 15 15 15 14 11 12 11 13
2 3 3 5 7 7 9 9 9 9 10 9 11 10 13 14 12 7 10 12 15 15 16 16 16 15 15 14 14 13 14 14 12 13 15 12 12 13 15 14 13 14 14 13 13 12 8
2 3 4 6 7 7 9 10 9 9 10 10 12 12 12 14 9 6 10 14 15 15 16 16 15 15 13 13 14 12 12 12 13 13 13 12 12 12 14 15 14 15 12 10 9 8 10
1 2 3 4 6 7 9 10 10 10 10 11 13 9 12 13 13 11 12 14 15 16 15 15 13 13 13 13 11 11 12 12 12 11 11 12 10 13 14 14 12 13 12 11 12 12 11
2 2 3 5 6 8 9 10 10 11 10 11 12 9 11 7 8 10 13 13 14 15 16 15 15 14 13 12 12 11 12 12 11 11 10 11 12 10 9 9 10 12 12 11 13 12 13
1 2 4 6 7 8 9 10 11 11 10 10 12 11 11 8 12 10 10 13 14 14 14 15 14 13 13 12 13 11 12 11 12 10 9 8 9 8 9 8 8 11 11 11 11 11 11
2 3 4 6 7 8 9 10 11 11 10 11 12 14 15 4 7 9 8 11 13 13 12 13 13 12 12 11 11 10 11 10 10 10 7 7 6 9 10 6 8 10 10 11 11 10 12
3 4 5 6 7 8 9 10 11 11 11 13 14 15 14 5 6 9 10 13 12 13 13 11 13 12 10 11 11 11 9 8 8 6 6 4 5 4 8 5 11 13 10 10 11 11 11
4 5 6 7 8 9 10 10 11 12 12 13 14 15 15 3 7 10 10 9 10 11 10 10 10 11 12 12 8 10 7 8 6 6 6 5 5 4 9 9 9 13 10 10 10 13 11
4 6 7 7 8 9 10 11 11 12 12 13 14 15 15 9 7 14 10 11 7 7 7 8 9 10 11 4 6 9 10 10 10 8 5 5 3 8 5 9 10 12 10 10 11 11 11
6 7 7 8 9 10 10 11 11 12 12 12 14 14 14 13 11 12 11 11 11 9 7 8 9 10 10 4 5 8 10 7 10 8 5 5 3 7 2 8 8 9 10 10 11 12 9
7 7 8 9 9 10 11 11 12 12 12 12 14 14 14 13 11 12 13 13 11 12 8 9 9 10 5 6 6 6 6 7 8 8 6 8 6 6 2 6 10 8 10 10 11 12 12
7 8 8 9 9 10 11 12 12 12 12 12 13 13 13 13 11 11 13 14 14 15 14 11 12 10 11 5 3 2 4 3 4 9 6 9 8 8 8 9 9 10 10 12 11 11 12

GFSGBSN_850_temp_021.txt.gz
Temp
10 10 9 10 10 10 11 11 11 12 12 12 13 12 12 13 13 13 13 13 12 12 12 13 14 14 14 13 17 19 19 19 18 18 18 20 21 22 23 24 24 24 25 24 24 24 24
9 10 10 10 10 10 11 11 11 12 12 12 12 12 12 12 12 13 13 13 12 12 13 13 14 13 12 16 19 18 19 19 17 18 19 20 21 22 23 24 24 24 24 24 24 24 22
10 9 9 10 10 10 10 11 11 11 12 12 12 12 12 12 12 12 13 12 12 12 13 13 14 13 11 17 19 18 18 18 18 19 20 20 21 21 22 23 23 23 23 24 24 24 24
11 9 9 9 9 10 10 10 10 11 12 12 12 12 12 12 12 12 13 12 12 12 13 13 13 13 14 18 18 18 18 18 18 18 19 19 20 20 21 22 23 23 24 23 24 25 24
9 10 9 9 9 10 9 10 10 10 11 11 12 12 12 12 12 12 12 12 12 13 13 13 13 12 18 19 19 20 19 20 19 18 19 18 19 20 21 21 23 23 22 23 23 25 25
6 7 9 8 9 10 9 9 10 10 11 11 11 12 12 12 12 12 12 12 12 13 13 14 12 12 17 20 20 20 20 19 19 18 18 19 20 22 22 23 21 22 23 25 24 24 25
5 5 5 7 8 9 9 9 10 10 10 11 11 11 11 12 12 12 12 12 12 11 13 16 18 19 20 20 20 21 20 19 19 20 22 20 21 21 23 23 24 24 24 24 24 24 24
5 4 6 4 7 9 8 9 9 10 10 10 11 11 11 11 12 12 12 12 15 14 17 17 17 18 18 18 21 21 21 21 22 21 22 21 21 23 24 24 24 24 24 24 24 23 23
2 3 3 5 6 8 8 9 9 9 9 10 10 10 11 11 11 12 13 12 13 13 17 19 18 19 20 19 21 22 22 23 22 21 22 21 22 22 23 23 23 24 24 23 23 23 24
2 2 3 4 5 7 8 8 9 9 9 9 10 10 11 11 11 10 12 14 14 13 18 20 20 20 20 20 22 22 22 23 22 22 22 17 22 22 23 23 23 23 23 24 23 23 22
2 2 2 3 4 6 8 8 9 9 8 9 10 10 11 11 9 11 13 13 12 13 16 22 22 20 21 21 22 21 21 22 23 22 22 22 23 23 23 23 23 20 23 23 24 24 23
2 2 2 3 4 5 7 8 8 8 8 9 9 10 10 10 11 12 12 12 12 15 17 20 22 22 21 22 22 22 22 22 22 22 23 17 22 23 23 22 23 23 23 23 24 24 21
1 2 2 2 3 4 6 7 8 8 8 9 9 9 10 11 11 11 12 13 16 16 21 21 21 22 22 21 22 22 22 22 22 20 20 22 23 22 22 22 22 23 22 21 20 20 20
1 1 2 2 3 3 5 6 7 7 7 8 8 9 10 10 10 11 11 16 16 20 21 22 22 22 21 22 22 22 22 22 23 23 21 21 20 22 23 23 23 22 23 21 19 20 21
-0 1 1 2 3 3 4 5 7 8 7 7 8 8 9 12 12 11 13 15 17 21 22 21 22 21 21 22 22 22 22 22 23 23 21 22 20 22 22 22 23 22 21 23 21 20 19
-1 0 1 2 2 3 4 5 6 7 6 7 7 7 10 11 11 10 15 16 20 22 22 22 20 22 21 21 21 21 22 23 22 22 22 23 21 22 21 21 21 21 23 20 21 18 18
-1 -1 1 1 2 3 4 4 5 7 7 7 7 9 13 12 11 12 15 18 21 20 21 21 22 21 22 22 22 22 22 22 22 21 22 23 22 20 20 21 22 21 21 21 21 20 19
-2 -1 0 1 1 2 3 4 4 6 7 7 8 12 10 11 13 15 16 19 20 21 20 21 21 22 22 22 21 22 22 22 21 22 21 22 21 20 21 21 21 22 22 22 19 19 19
-1 -1 -0 1 1 2 3 3 4 5 6 6 10 12 9 11 14 15 18 19 20 21 21 20 21 22 22 22 20 21 22 17 17 20 21 21 20 19 19 20 21 20 21 21 21 18 18
-1 -0 -0 0 1 2 2 3 3 5 6 7 12 14 10 10 15 17 18 19 19 20 21 21 22 22 21 21 21 20 20 17 16 19 15 17 20 20 19 20 22 20 21 21 20 18 19
0 -0 -0 1 2 2 2 3 3 5 6 8 13 16 15 13 16 17 19 19 19 19 20 20 20 21 21 20 20 20 20 17 16 14 17 19 18 20 20 20 20 20 21 21 20 20 19
-1 -1 0 1 2 2 1 2 3 5 7 7 14 17 16 16 16 17 16 19 20 21 20 20 21 21 22 21 20 20 20 19 19 17 18 18 18 17 16 19 18 18 20 21 21 21 21
-1 -0 0 1 1 1 2 2 4 5 6 7 12 16 16 15 17 17 18 19 20 21 18 20 21 21 21 20 18 18 19 19 20 19 18 17 15 15 17 16 16 14 17 19 21 21 21
-0 0 1 1 1 1 1 1 4 5 6 10 12 14 16 15 17 17 19 19 20 20 19 19 20 21 16 15 16 16 17 17 17 16 17 14 15 15 15 10 11 20 20 20 19 21 22
0 0 1 1 1 1 1 2 3 5 6 10 12 14 16 11 17 18 18 19 20 19 19 17 15 16 15 17 16 15 15 13 14 16 16 16 15 13 12 16 18 19 20 18 18 19 20
0 0 1 1 1 2 2 3 5 6 8 9 11 13 16 15 16 17 18 18 17 17 15 12 13 13 14 17 16 16 16 17 16 15 14 14 13 15 13 12 12 17 17 16 17 17 18
0 1 1 1 1 3 2 2 5 6 8 9 11 14 16 17 17 17 18 18 18 18 17 13 12 12 13 14 12 16 17 17 16 14 9 12 11 12 13 12 15 18 17 15 15 16 16
1 1 1 1 3 3 3 5 6 8 8 7 11 14 16 17 14 14 17 17 17 18 16 14 14 14 14 13 13 16 14 16 16 17 14 14 13 11 13 10 11 16 16 15 16 16 16
0 1 3 2 3 5 5 6 7 8 8 8 11 15 15 15 12 11 13 15 15 17 18 14 18 16 16 17 14 14 10 8 15 14 16 15 16 16 16 16 16 16 16 16 15 14 14

GFSGBSN_850_temp_024.txt.gz
Temp
10 10 9 10 9 10 10 10 10 11 11 12 12 13 13 13 13 13 13 13 13 13 13 14 14 14 14 13 17 19 19 19 18 18 17 20 21 22 22 24 24 24 25 25 24 24 21
12 10 9 10 9 9 10 10 10 10 10 11 12 12 12 13 13 13 13 13 13 13 13 14 13 14 13 16 20 19 19 19 18 17 19 21 22 22 23 24 24 24 24 25 24 23 24
12 11 10 9 9 9 10 10 10 10 10 10 11 12 12 12 12 13 13 13 13 13 13 14 13 13 11 16 19 19 18 18 19 19 20 21 22 22 23 24 24 24 23 24 25 24 24
11 11 11 11 9 8 9 10 10 10 10 10 11 11 12 12 12 12 12 12 13 13 13 13 13 13 13 18 19 19 19 20 19 19 19 21 20 21 21 22 23 23 23 22 24 24 23
11 11 11 11 10 8 9 9 10 10 10 10 10 11 11 12 12 12 12 12 13 13 13 13 13 12 17 19 19 20 20 20 21 19 19 20 19 20 21 21 22 22 20 22 24 25 24
10 11 11 11 11 10 9 10 9 9 10 10 9 10 11 11 12 12 12 13 13 13 13 14 13 13 18 20 21 21 21 21 20 20 19 19 20 21 22 22 19 20 21 22 23 25 25
9 9 10 9 10 10 9 9 9 9 9 9 9 10 11 11 12 12 12 12 13 11 12 16 19 18 21 21 21 21 21 20 20 20 20 21 20 21 20 21 23 23 23 23 25 25 24
5 7 8 8 7 9 10 9 9 9 9 9 9 10 10 11 11 11 12 11 16 14 16 17 18 18 19 20 21 22 22 21 21 20 19 22 20 21 22 23 23 23 23 24 24 25 24
3 3 5 7 7 7 10 9 9 9 9 9 9 9 10 10 11 12 12 13 14 13 16 20 19 19 20 20 21 22 22 22 21 21 20 20 18 19 22 23 23 23 23 22 23 24 24
2 2 3 4 5 6 8 9 9 9 9 9 9 9 10 10 11 12 12 14 14 13 16 21 21 20 21 21 22 23 23 20 20 21 17 18 21 20 23 22 24 21 22 23 22 23 21
1 1 2 2 2 3 6 8 8 8 8 8 9 9 10 9 11 11 14 14 13 13 15 22 22 22 21 21 22 22 23 22 22 21 20 17 21 22 22 21 22 19 22 22 23 23 20
0 1 1 2 2 3 4 7 7 8 8 8 8 9 9 9 11 13 12 13 13 15 15 21 22 22 22 22 23 23 22 22 21 21 22 22 22 22 20 22 23 22 22 23 23 23 16
-1 0 1 1 1 2 3 5 6 8 8 7 8 9 9 9 10 12 12 12 15 15 22 21 21 22 22 22 23 23 22 22 22 20 20 21 22 24 22 23 23 23 22 20 16 15 18
-1 -0 0 1 1 2 2 4 6 7 8 8 7 7 9 9 10 10 11 13 15 19 20 24 22 22 21 22 22 23 22 21 23 23 22 20 18 23 24 23 17 18 22 19 13 12 20
-1 -1 -0 1 2 2 2 3 5 7 8 7 6 7 7 10 9 9 11 12 16 20 22 22 22 21 22 23 22 22 22 22 23 23 18 16 18 20 23 24 23 22 21 23 19 19 19
-2 -1 0 0 2 2 2 3 4 6 7 7 7 5 8 10 9 8 11 14 18 21 23 23 21 22 21 22 21 22 22 23 23 23 19 12 11 18 22 22 23 22 23 20 21 18 17
-2 -1 -1 0 1 2 2 3 4 5 6 6 6 8 11 10 9 9 13 15 18 21 22 22 22 22 22 22 22 22 22 23 23 23 23 22 18 21 21 21 22 21 21 21 22 20 18
-2 -1 -1 -0 0 1 2 3 3 4 5 6 7 10 12 11 11 13 14 17 19 20 22 22 22 23 22 23 22 22 22 23 23 23 21 23 21 19 21 23 23 22 21 22 17 18 18
-2 -2 -1 -1 -1 1 2 2 3 4 5 6 8 11 10 11 12 12 15 17 19 20 22 21 21 22 23 22 21 22 23 19 20 21 21 21 20 18 20 21 22 21 22 22 22 18 17
-2 -2 -1 -1 -1 0 1 2 3 4 4 6 10 11 9 9 14 15 15 17 18 20 22 21 22 22 22 22 23 21 22 19 18 20 17 19 20 19 18 20 21 20 21 22 21 16 17
-2 -1 -1 -1 -1 0 1 1 2 3 4 6 11 13 12 10 12 16 17 18 18 19 21 22 21 22 21 20 21 21 22 18 18 16 18 19 18 20 21 21 21 20 21 22 21 21 18
-2 -1 -1 -1 -1 0 1 1 2 3 4 5 10 14 14 14 14 15 15 17 19 20 21 20 21 22 22 21 21 20 21 19 19 17 19 19 17 17 17 19 20 19 20 21 21 21 21
-1 -1 -1 -0 -0 0 1 2 2 2 3 5 8 13 15 14 15 15 16 18 19 21 21 21 21 22 21 21 21 19 20 21 21 19 18 18 15 15 16 17 16 14 16 19 20 21 21
-1 -1 -0 0 0 0 2 1 2 2 3 6 8 12 14 13 15 16 17 18 20 21 20 21 21 21 18 18 18 18 18 18 19 18 20 14 15 14 14 11 13 19 21 21 20 20 21
-1 -1 -1 -0 -0 1 1 1 1 1 2 5 9 9 12 10 16 17 18 19 20 21 20 20 17 18 18 18 16 15 14 13 16 18 17 17 14 13 11 14 17 18 20 19 18 18 19
-1 -1 -0 -0 0 1 1 1 1 2 3 5 8 8 9 13 15 17 19 19 18 17 16 14 16 17 18 17 15 16 15 17 16 15 16 15 14 14 12 13 13 17 18 18 18 16 18
-1 0 0 0 1 1 1 1 2 2 3 4 5 8 9 13 16 17 18 18 19 17 16 15 13 14 15 13 11 16 16 19 15 14 10 11 12 10 12 11 13 19 18 17 15 15 16
-1 0 0 1 1 1 2 1 3 3 4 4 7 8 8 11 17 17 18 18 18 18 14 15 15 15 15 13 13 16 13 16 17 17 13 12 12 10 13 9 10 18 17 14 15 16 15
0 0 1 1 1 1 2 1 5 4 3 4 7 10 10 10 13 14 15 16 17 18 17 14 17 16 16 16 14 14 9 8 14 14 19 15 16 15 14 14 17 17 16 16 15 15 14

GFSGBSN_850_temp_027.txt.gz
Temp
12 11 11 10 10 9 9 9 10 10 10 10 11 12 12 13 13 13 13 13 13 13 13 13 13 14 14 14 17 19 19 19 18 18 19 19 19 20 19 20 21 20 21 23 22 19 18
12 12 12 11 10 10 9 9 9 10 10 10 10 11 12 12 12 13 13 13 13 13 13 13 13 13 13 13 18 19 19 19 19 19 19 19 20 21 21 21 20 23 23 23 23 18 18
12 12 12 12 12 10 9 9 10 10 10 10 10 11 12 12 12 12 13 13 13 13 13 13 13 13 13 18 19 18 19 19 19 19 19 19 20 21 20 19 22 23 21 23 22 22 19
12 12 12 12 12 12 10 9 10 10 10 10 10 10 11 12 12 12 12 12 13 13 13 13 13 12 14 19 19 19 18 19 19 19 19 20 20 20 20 21 21 22 21 19 22 22 21
12 12 12 12 12 12 11 9 9 10 10 10 10 10 11 12 12 12 12 13 13 13 13 13 13 11 14 18 19 20 19 20 20 20 20 20 20 20 20 18 17 20 18 19 20 22 22
11 11 12 12 12 12 12 11 9 9 9 9 9 10 10 11 11 12 12 13 13 14 13 13 12 11 17 19 20 21 20 20 20 20 19 19 19 17 17 17 16 19 19 18 19 20 21
8 10 11 12 12 12 12 11 10 9 9 8 9 9 10 11 11 11 12 12 13 13 12 15 17 17 19 20 21 21 21 21 20 19 17 19 16 16 18 19 20 20 19 18 20 21 20
5 7 10 10 11 12 12 11 11 9 9 8 9 9 10 11 11 11 11 12 13 12 13 16 16 16 18 19 20 21 21 20 20 17 18 16 17 20 20 20 19 20 20 20 21 21 21
2 2 4 7 10 11 12 11 11 10 9 9 9 9 9 10 11 11 12 13 14 13 12 16 18 18 19 19 20 20 21 21 20 18 18 17 17 20 20 18 18 20 19 19 21 22 22
1 1 2 5 5 9 10 10 11 10 9 9 9 9 9 10 10 11 13 14 15 12 10 17 19 19 19 20 20 21 21 21 20 18 15 16 19 19 19 18 21 20 20 20 21 19 18
0 1 1 2 3 2 5 8 9 10 9 9 8 8 9 9 10 11 12 12 13 12 11 19 20 21 20 20 21 21 21 21 19 18 17 17 18 18 18 18 21 19 20 20 20 19 19
1 0 0 1 1 2 2 2 7 7 8 8 8 8 8 9 10 12 12 13 13 11 11 20 21 20 20 21 21 21 22 22 21 18 17 18 21 19 19 20 21 20 20 20 18 17 13
0 1 -0 -0 0 1 1 2 3 6 5 8 8 8 8 9 10 10 12 12 10 9 19 20 19 20 19 19 20 20 20 19 17 17 17 19 20 19 20 19 20 19 17 14 13 11 12
0 -0 0 -1 -0 0 1 1 2 4 5 7 7 8 8 9 10 10 11 10 11 16 17 21 20 19 19 20 19 20 19 18 18 18 17 17 16 17 18 19 20 19 17 13 13 12 13
0 -1 -1 0 -0 -0 0 1 2 3 4 6 7 7 7 10 10 8 9 10 11 16 19 19 20 19 18 20 20 19 19 18 18 19 16 15 17 16 18 19 20 20 17 18 13 12 12
0 -0 -1 -1 -0 0 1 0 1 3 3 5 7 6 7 10 9 8 9 11 14 17 20 20 18 19 18 19 19 18 18 20 20 19 16 13 15 15 15 18 19 20 19 16 14 14 14
-1 -1 -1 -0 -1 -0 1 1 1 2 3 4 6 6 8 9 8 7 9 11 14 17 18 19 19 19 19 19 19 19 19 20 20 17 16 13 14 15 16 17 17 18 18 19 17 12 12
-1 -1 -1 -1 -0 -0 1 1 2 2 3 4 6 7 10 9 6 8 8 12 15 17 18 18 20 20 19 20 18 18 18 19 21 21 18 14 14 12 17 19 21 20 19 16 10 15 10
-2 -1 -1 -1 -1 -1 0 2 2 3 3 4 6 8 8 10 8 7 11 12 14 16 16 18 19 20 20 19 16 18 17 18 19 18 18 18 16 10 14 16 19 19 19 19 16 11 13
-2 -2 -1 -1 -1 -1 -0 1 2 2 3 4 7 7 8 7 12 10 10 12 13 16 16 18 19 19 18 19 20 17 16 17 18 16 18 18 17 14 11 15 18 18 18 18 17 9 11
-2 -2 -2 -2 -2 -1 -1 1 1 2 3 4 7 9 10 8 8 11 12 13 14 14 17 19 18 18 18 19 19 19 16 16 17 16 18 16 15 18 17 17 18 19 19 18 18 16 13
-2 -2 -1 -2 -1 -1 -1 -1 1 2 2 4 6 11 11 10 10 10 11 13 15 16 17 17 17 18 18 18 18 17 17 16 16 15 16 16 13 15 16 17 16 16 17 17 17 18 18
-2 -2 -2 -1 -1 -1 -0 -0 1 2 2 3 5 11 12 10 10 10 12 14 14 16 17 19 18 18 17 18 19 18 20 19 17 14 14 13 10 9 13 12 13 10 14 16 16 17 17
-2 -2 -1 -1 -1 -0 -1 -0 1 1 2 3 5 8 11 9 11 11 13 14 15 15 16 19 20 16 17 19 18 18 17 16 17 15 15 11 11 7 8 8 9 14 18 18 17 16 15
-1 -1 -1 -1 -0 -0 -1 0 1 1 1 2 5 6 9 5 11 12 14 15 16 17 16 17 17 19 19 17 10 12 8 12 15 15 13 12 8 7 7 7 11 15 16 17 16 14 14
-1 -1 -1 -1 -1 0 0 0 1 2 1 2 4 5 7 8 11 14 14 15 14 12 11 13 15 16 18 9 7 12 9 12 12 14 12 12 8 6 6 7 8 11 16 17 16 10 14
-1 -1 -1 -1 -1 -0 0 1 1 2 2 2 2 3 5 8 13 15 14 15 16 13 10 11 13 14 16 4 7 8 9 14 11 10 8 6 6 6 4 5 8 14 16 16 11 10 15
-1 -1 -1 -1 0 -0 0 1 1 1 2 2 2 4 5 7 12 14 16 17 17 15 10 12 11 11 8 8 7 7 6 9 9 12 9 8 6 4 6 6 8 16 15 12 11 14 14
-1 -1 -1 -1 -0 -0 1 1 2 1 4 2 2 4 5 5 8 12 16 17 18 18 15 14 14 13 14 9 7 6 6 5 9 8 13 10 9 7 9 7 12 16 15 15 15 14 13

GFSGBSN_850_temp_030.txt.gz
Temp
12 12 12 12 11 10 10 9 9 10 10 10 10 11 12 13 13 13 13 13 13 13 13 14 14 14 14 14 18 18 19 19 19 19 19 18 18 18 18 19 19 18 19 21 19 19 19
12 12 12 12 12 12 10 10 9 9 9 10 10 11 12 12 12 13 13 13 13 13 13 13 14 14 14 12 18 18 18 19 19 19 19 18 19 19 19 19 18 20 20 19 19 18 18
12 12 12 12 12 12 12 10 9 9 10 9 10 10 11 12 12 13 13 13 13 13 13 13 13 13 14 18 18 18 18 19 19 19 19 19 19 19 20 19 20 20 20 18 17 17 17
12 12 13 12 12 12 12 12 10 9 10 10 9 10 10 11 12 12 12 13 13 13 13 13 13 13 16 18 18 19 19 19 19 19 19 19 19 20 20 20 20 18 18 17 17 17 18
11 11 12 13 12 12 12 12 11 10 9 10 9 9 10 11 12 12 12 12 13 13 13 13 12 12 16 19 19 19 19 19 19 19 19 19 19 19 19 17 15 15 17 19 19 20 19
8 11 11 12 12 12 12 12 11 11 9 9 9 9 10 10 11 12 12 12 13 13 13 12 12 11 18 19 19 20 19 20 19 19 19 19 19 15 15 15 15 18 18 18 18 20 20
3 4 9 10 12 12 12 12 12 11 10 9 9 9 9 10 11 12 12 12 13 13 12 15 15 16 17 19 20 20 20 20 20 19 16 17 15 15 17 16 19 19 18 17 18 18 19
2 2 3 6 9 11 11 11 11 11 10 10 9 9 9 10 10 11 11 12 12 11 11 14 16 14 17 17 16 20 21 20 19 17 16 15 16 18 18 19 18 17 17 17 18 19 19
1 2 2 2 5 7 10 10 11 11 10 9 9 9 9 9 10 11 12 12 11 12 11 14 16 17 18 19 18 20 20 20 18 17 16 16 18 18 19 19 18 17 17 17 18 18 18
1 1 1 2 2 3 5 7 9 10 10 9 9 9 9 9 10 11 12 12 13 13 10 13 16 18 18 19 19 20 20 20 18 16 16 16 18 19 18 18 17 16 18 18 19 17 17
2 2 1 1 2 2 3 3 6 8 9 9 8 8 9 9 10 11 11 11 12 12 9 17 17 20 20 19 20 21 21 20 17 17 16 17 17 18 18 17 18 17 19 19 20 16 17
1 2 2 1 1 1 1 2 2 4 7 7 7 8 8 8 10 12 11 11 11 11 10 17 19 18 18 19 19 20 20 21 20 16 17 17 18 18 18 19 18 19 19 16 15 14 13
1 1 1 1 1 1 1 1 2 2 3 5 6 7 8 9 10 11 11 12 9 10 15 18 17 18 17 17 18 18 19 18 16 16 15 17 18 18 20 19 18 19 16 13 14 11 12
0 1 1 1 1 1 1 1 1 2 2 4 4 7 7 8 9 10 10 10 10 13 14 18 18 17 17 17 17 18 17 16 16 17 14 15 15 17 17 18 18 17 16 12 14 11 14
1 1 1 1 1 1 0 1 1 1 2 3 4 6 6 8 9 9 9 10 10 12 16 17 18 17 16 18 18 17 16 16 17 16 16 15 16 15 16 18 17 17 16 16 12 10 12
0 1 1 1 0 0 0 -0 0 1 2 2 4 5 6 7 8 7 8 10 12 14 16 18 17 17 15 17 16 16 15 17 17 17 16 15 16 15 16 19 18 17 18 16 12 14 14
0 1 0 0 -0 0 -0 0 0 1 2 2 4 5 6 7 7 6 8 10 12 14 15 16 17 17 17 16 16 15 17 18 17 15 16 13 15 15 17 16 17 16 17 17 14 11 12
0 1 -0 -0 -0 1 -0 -0 0 0 1 2 4 6 7 7 6 6 9 11 12 14 15 15 16 15 16 16 16 16 16 18 19 16 16 14 13 10 16 17 17 17 17 15 10 15 8
-0 -1 -0 -1 -0 0 0 -0 0 0 1 2 5 6 7 8 6 6 9 11 11 13 14 15 16 17 19 16 17 16 17 17 17 16 16 14 14 10 14 15 17 17 17 16 13 9 11
-0 -1 -1 -1 -1 -0 0 -0 1 0 1 2 5 6 6 6 9 9 8 9 10 12 13 14 14 15 17 16 17 16 16 17 16 16 17 17 14 13 11 14 15 17 18 17 14 9 10
-0 -1 -2 -1 -1 -1 -0 1 0 1 1 1 5 8 8 7 6 9 9 10 10 11 14 15 15 14 15 16 15 16 15 16 15 16 17 14 15 15 15 16 17 17 17 17 16 14 12
-0 -1 -1 -2 -1 -1 0 1 -0 0 1 2 5 8 9 8 8 8 9 10 11 12 13 15 14 15 15 16 15 15 15 14 15 15 16 14 13 14 15 14 15 16 15 15 16 16 14
-1 -2 -2 -2 -1 -1 -0 -0 -1 0 1 2 2 7 10 9 8 7 9 10 12 12 14 15 15 15 14 15 18 19 19 18 15 13 13 12 9 8 12 10 12 10 13 14 16 16 16
-1 -2 -2 -2 -1 -1 -1 0 -0 0 1 2 2 5 9 8 9 8 10 11 12 13 13 15 16 14 17 18 17 17 15 14 14 12 13 9 9 6 7 7 9 13 14 15 12 13 12
-2 -2 -2 -2 -0 -1 -0 -1 -0 -0 1 2 3 3 7 4 9 9 10 11 13 14 13 15 16 17 18 17 10 11 7 11 13 11 11 11 6 7 7 7 10 14 15 14 13 13 13
-2 -2 -2 -1 -0 -0 -0 -0 -0 -1 1 1 2 4 4 7 9 11 11 12 11 11 12 14 16 16 17 7 6 10 9 11 11 12 10 8 6 7 5 7 8 10 14 16 13 9 13
-2 -1 -1 -0 -0 -1 -1 -0 1 0 1 1 2 2 2 5 10 12 10 11 13 11 11 11 14 14 14 4 6 7 8 11 10 9 8 5 4 5 2 4 7 10 14 15 12 10 13
-1 -1 -1 -1 -1 -1 -1 -0 0 1 1 1 2 2 2 4 7 9 13 13 13 13 10 11 11 10 5 7 7 6 5 8 8 10 8 8 6 4 5 5 9 13 14 12 10 12 13
-1 -1 -1 -1 -1 -1 -1 -0 0 1 1 1 2 1 3 3 5 7 11 12 15 15 15 12 13 12 11 8 6 5 6 4 7 7 10 10 8 7 7 7 11 14 14 14 14 13 12

GFSGBSN_850_temp_033.txt.gz
Temp
12 12 12 12 11 11 10 10 10 9 9 10 10 11 11 12 12 12 13 13 13 13 14 14 14 14 15 15 18 18 18 18 18 18 17 18 18 17 17 17 18 17 18 19 19 18 18
11 12 11 12 12 12 11 11 10 9 9 9 10 10 10 11 12 12 12 13 13 13 13 13 14 14 14 13 18 18 18 18 18 18 18 19 19 18 17 17 17 19 18 17 17 17 18
11 11 11 11 12 11 11 12 11 10 9 9 9 10 10 10 12 12 12 13 12 13 13 13 13 14 14 18 18 18 18 18 18 19 19 19 19 19 19 17 19 19 18 17 17 17 17
9 11 11 11 11 11 11 11 11 11 10 9 9 10 10 10 11 11 12 13 12 12 13 13 13 13 15 18 18 19 18 18 18 18 18 19 19 19 19 19 18 18 17 16 17 17 18
6 8 11 11 11 11 11 11 11 11 11 9 9 10 10 10 10 11 12 12 13 12 13 13 13 13 16 18 18 19 19 19 19 19 19 19 18 18 18 16 14 14 17 17 18 17 17
3 6 7 10 10 11 11 11 11 11 11 10 9 9 10 10 10 11 12 12 13 13 13 13 12 12 17 18 18 18 19 19 19 19 19 19 18 14 13 14 14 17 17 17 17 19 16
2 2 3 5 9 9 11 12 11 11 11 10 9 9 9 9 10 11 12 12 12 12 12 14 15 15 17 17 18 20 19 19 18 18 16 16 14 14 16 16 17 17 16 16 17 18 18
2 2 2 2 3 5 6 9 11 11 11 11 9 8 8 9 9 10 11 11 11 10 10 14 15 14 16 16 15 19 19 19 18 16 16 14 15 16 16 17 17 17 17 17 16 17 17
2 2 2 2 2 2 3 4 5 9 11 10 9 8 8 9 9 10 11 10 11 11 10 13 14 16 17 17 16 19 19 19 17 16 15 15 17 18 19 18 18 17 17 15 17 18 17
1 2 2 2 2 2 2 3 3 4 7 9 9 7 8 8 9 10 11 10 12 12 9 12 13 16 17 18 17 19 20 20 17 16 14 15 16 18 17 17 17 16 17 16 17 17 16
1 1 2 2 2 2 1 2 2 3 3 7 8 6 7 7 9 10 11 10 11 12 9 15 15 18 18 18 19 18 20 20 16 16 15 16 16 17 17 17 17 16 17 17 18 16 16
1 1 2 2 2 2 1 1 2 2 3 4 6 5 7 7 8 11 11 11 11 8 10 15 17 16 16 18 19 19 19 20 19 16 16 16 18 17 17 18 17 18 18 15 13 13 12
1 1 0 2 2 2 2 1 2 2 2 2 4 5 6 7 8 10 11 11 9 7 14 16 16 16 16 15 17 18 17 17 15 15 15 16 17 18 18 18 17 17 14 13 13 11 12
1 1 1 1 2 1 2 1 1 1 1 2 3 4 6 6 7 9 10 10 9 11 12 15 17 15 15 16 16 16 16 15 16 15 13 14 15 17 17 18 17 16 15 12 14 11 14
1 1 1 1 1 2 2 2 1 1 1 2 2 3 5 6 7 8 9 9 9 11 14 16 16 15 15 16 16 16 15 15 15 15 15 14 16 16 16 17 18 17 15 15 11 9 11
1 1 1 0 -0 2 2 1 1 1 1 2 2 3 4 7 7 7 8 10 11 13 14 14 15 15 14 14 15 15 14 15 16 15 16 15 16 16 15 17 17 17 16 15 11 14 14
1 1 2 1 -0 1 1 1 1 2 1 2 2 3 5 6 7 5 7 9 11 14 14 14 15 15 15 15 14 14 15 16 16 15 16 13 15 15 16 15 16 16 16 14 13 10 11
1 1 1 2 0 1 1 1 1 1 1 2 2 4 6 6 6 6 7 9 12 13 13 13 14 14 15 14 14 15 15 17 18 15 15 13 12 10 15 16 16 17 17 14 10 14 7
1 2 1 0 0 1 1 1 1 0 1 1 2 4 6 6 7 6 8 9 11 12 12 12 13 14 16 14 15 14 14 16 16 15 14 13 12 10 13 15 15 17 15 14 11 8 10
1 2 1 0 0 1 1 1 -0 1 1 1 3 4 5 5 8 8 8 8 9 11 11 12 13 14 15 16 15 14 15 16 15 15 16 15 12 13 12 14 14 16 17 15 13 8 10
1 2 1 0 0 0 0 -0 0 1 1 1 2 6 7 6 6 7 8 9 9 11 11 12 11 12 13 13 15 15 14 15 15 14 14 14 14 14 14 15 15 16 16 14 14 13 12
1 1 1 0 -0 0 -0 -0 -0 1 1 -1 2 5 7 7 8 7 8 8 9 10 10 11 12 14 13 12 13 14 14 13 14 15 15 12 12 14 14 13 13 15 14 14 13 14 13
1 1 1 0 -0 -1 -0 -1 -1 1 1 -1 1 4 6 8 8 7 8 8 10 11 11 13 13 13 12 13 15 16 16 17 15 13 12 11 8 9 12 10 11 9 11 13 14 14 14
2 1 0 -0 -1 -1 -1 -1 -0 1 1 -0 1 2 4 6 7 8 9 9 9 11 11 12 13 12 15 16 15 15 14 12 12 10 11 8 8 6 7 7 8 12 13 12 12 12 11
1 0 0 -0 -1 -1 -1 -0 -0 1 -0 -0 2 2 4 4 8 8 8 9 10 11 11 12 13 15 14 15 10 11 7 10 11 9 10 9 6 6 7 7 10 14 12 12 13 13 13
0 -0 -0 -1 -1 -1 -1 -0 1 -0 0 -1 1 2 2 4 6 9 9 9 8 9 9 11 13 14 15 6 5 10 9 10 10 11 9 7 5 7 4 7 9 10 12 15 12 9 12
-0 -0 -1 -1 -1 -1 -1 0 0 -0 -0 -1 1 2 2 3 7 9 8 9 10 10 9 10 12 11 14 3 5 7 8 11 9 9 8 5 4 6 1 5 7 9 13 14 12 10 12
-1 -1 -1 -2 -1 -1 -1 -0 0 -1 -1 -0 0 2 3 2 4 7 9 10 10 11 9 10 11 10 4 8 7 5 5 7 7 9 8 9 6 4 3 4 9 12 12 11 10 12 13
-2 -2 -2 -2 -1 -1 -1 -1 -1 0 -1 -0 1 2 2 2 3 5 7 9 8 12 12 12 13 11 11 7 5 5 5 3 7 7 9 10 7 7 8 7 10 12 13 15 15 14 13

GFSGBSN_850_temp_036.txt.gz
Temp
9 10 11 11 10 10 11 10 9 9 9 9 9 9 10 10 11 12 12 12 13 13 13 14 14 14 15 15 18 17 18 18 18 18 18 18 17 17 16 16 16 16 17 18 17 17 16
8 10 10 11 11 11 11 11 10 9 9 9 9 9 9 10 10 11 12 12 13 13 13 13 14 13 14 13 17 17 17 18 18 18 18 18 18 17 17 16 17 18 17 17 16 16 16
9 8 8 10 11 11 11 11 11 11 10 9 9 8 10 10 10 10 11 12 12 12 13 13 13 13 14 17 18 18 18 18 18 18 18 18 18 18 18 16 18 18 18 17 16 16 16
7 8 8 7 9 10 10 11 11 11 11 10 9 8 8 9 10 10 11 12 13 12 13 13 13 13 15 18 18 18 18 18 18 18 18 18 18 18 18 18 17 17 17 17 17 16 16
3 3 7 6 7 7 10 9 11 11 11 11 10 9 8 8 10 9 10 11 13 13 13 13 13 12 15 17 18 18 18 18 18 18 18 18 18 17 17 15 14 13 15 16 17 16 16
2 3 2 3 4 5 7 9 8 10 11 11 10 9 8 8 8 9 10 11 13 13 13 13 12 11 16 17 17 18 18 19 18 18 18 17 17 13 12 14 14 16 16 16 16 17 16
1 2 3 2 3 3 3 5 6 8 9 11 10 9 9 8 9 8 10 11 12 12 11 14 14 15 17 17 17 19 19 19 18 18 16 15 14 14 15 15 16 16 16 15 15 17 17
0 1 2 3 2 2 3 3 3 5 8 10 10 10 8 9 8 8 9 10 10 10 9 14 14 13 15 15 15 18 18 18 17 15 15 14 14 15 16 15 17 17 16 15 16 16 16
1 1 1 2 3 2 2 2 3 3 4 7 10 10 8 7 8 7 8 11 10 10 9 12 14 14 16 16 16 18 18 18 17 15 15 14 16 17 18 17 18 16 17 15 16 16 16
1 1 1 1 2 2 2 2 2 2 2 4 8 8 6 7 7 7 9 10 11 11 9 11 12 14 15 17 16 18 19 19 16 15 13 14 15 17 17 17 16 16 16 15 15 16 15
1 1 1 1 2 2 2 2 2 2 2 3 5 6 5 6 8 9 9 10 10 11 10 14 13 16 16 17 18 18 19 19 15 15 14 15 16 16 16 16 16 15 16 16 17 15 15
2 1 1 2 1 1 2 3 2 1 2 2 3 4 4 6 6 9 9 9 10 9 9 14 15 14 14 17 17 17 18 19 18 15 15 15 16 16 16 17 16 17 17 14 12 12 12
1 1 1 1 1 1 2 3 2 1 1 2 2 2 4 5 6 8 8 9 9 8 14 15 14 14 14 14 16 16 15 15 14 14 14 16 16 17 17 17 16 16 14 12 13 11 12
2 1 1 1 1 1 1 2 2 2 1 2 2 2 3 5 6 7 8 8 8 11 11 14 15 14 14 15 15 16 15 14 15 14 12 13 14 16 17 17 16 16 14 11 14 11 13
2 2 1 1 1 1 1 2 2 2 2 2 2 2 2 4 6 6 7 8 9 10 13 14 15 14 14 15 15 15 14 13 14 13 15 13 15 15 16 17 17 16 14 14 10 8 10
2 2 1 1 1 1 1 1 1 2 1 2 1 2 2 4 6 6 6 9 11 11 13 13 13 14 12 13 15 14 13 14 15 14 15 14 15 15 16 16 16 16 14 13 10 14 14
2 2 1 1 1 1 1 1 1 1 1 1 1 2 3 3 5 5 6 8 11 13 13 13 13 14 13 13 13 12 13 16 14 14 15 13 14 14 15 15 15 14 14 12 12 9 11
1 1 1 1 2 1 1 1 2 1 1 2 2 2 4 5 6 7 7 8 11 12 13 12 12 13 14 13 13 13 14 15 17 14 14 13 12 10 14 15 15 14 14 12 9 13 7
2 2 1 1 1 1 1 1 1 1 0 1 2 3 4 5 6 6 8 9 9 11 11 11 11 13 14 14 15 13 13 16 16 13 13 12 12 10 13 13 14 15 14 13 10 7 10
1 1 1 1 1 1 1 1 1 1 0 2 2 2 4 4 8 7 8 8 8 11 11 12 11 13 14 14 12 13 14 14 14 15 15 15 11 12 12 13 13 15 14 12 12 8 9
1 1 1 1 1 1 0 1 0 1 0 2 2 3 6 5 5 7 8 8 8 9 11 11 10 11 13 13 14 14 13 13 14 13 12 13 13 12 13 14 14 15 16 12 13 12 12
1 1 1 0 1 1 0 1 0 0 0 0 1 3 7 6 6 6 7 8 8 9 10 10 10 11 11 11 12 14 13 12 13 12 12 11 12 13 13 13 13 14 13 13 12 13 12
0 1 1 1 2 1 0 1 -0 1 -0 0 0 3 5 7 6 6 7 8 8 9 10 11 11 11 10 12 14 14 15 13 12 12 10 10 8 9 12 10 12 9 10 12 12 12 13
-0 0 1 1 1 1 0 -0 0 0 0 1 0 2 3 5 6 7 7 8 8 9 10 11 11 11 13 14 14 13 12 11 11 9 10 7 8 6 6 7 9 13 12 13 11 11 11
0 1 0 1 1 1 0 -0 -0 -0 1 0 1 1 3 3 6 7 7 7 9 9 9 10 12 12 13 14 10 11 7 11 10 8 8 8 6 6 8 7 10 13 12 11 11 12 10
1 1 1 1 1 0 0 0 -0 0 0 -0 0 2 1 3 5 8 8 8 7 7 7 9 11 11 12 9 6 9 9 10 9 11 8 7 5 7 4 7 8 10 12 13 12 10 10
1 1 1 1 0 -0 -0 -0 0 -0 0 0 0 1 1 1 4 6 7 7 8 8 6 8 10 10 11 2 4 6 9 10 9 10 8 5 4 6 1 5 7 9 12 13 11 10 11
1 0 1 -0 0 -0 -0 -0 0 -0 -0 0 -0 1 1 1 3 4 8 9 8 8 7 8 9 9 4 7 6 5 4 7 7 9 8 9 7 4 3 4 9 11 11 11 10 12 13
1 0 0 -0 -0 -0 -1 -0 -1 -1 -1 -1 -1 1 1 1 3 4 5 8 8 9 9 10 11 8 9 7 3 4 4 2 7 8 8 10 9 8 8 8 10 11 12 15 14 14 13

GFSGBSN_850_temp_039.txt.gz
Temp
10 10 10 11 11 11 10 11 10 10 9 9 8 8 9 8 9 9 10 11 12 12 13 13 14 14 15 15 17 17 18 18 17 17 18 18 17 17 17 16 16 16 18 17 16 16 16
6 7 9 10 10 11 11 11 11 10 10 9 9 8 8 8 8 9 9 10 11 12 12 13 13 14 14 13 17 17 17 17 17 17 18 18 17 17 16 16 17 17 17 16 15 16 16
4 4 5 6 9 8 10 11 11 11 11 10 10 9 8 8 8 9 10 10 11 12 12 13 13 13 13 17 17 17 17 17 17 17 18 18 17 17 17 17 17 17 18 17 16 16 17
2 3 3 4 4 7 7 8 10 11 11 11 11 10 8 8 8 9 10 10 10 12 12 13 12 12 14 17 17 17 17 17 17 18 18 17 17 17 17 17 17 17 17 18 17 17 16
1 2 3 3 3 3 4 6 7 10 11 11 11 10 10 8 8 8 9 10 10 12 13 13 12 12 15 16 17 18 17 18 18 18 17 17 17 17 17 17 17 16 18 17 18 17 16
1 1 2 2 3 3 3 3 4 6 9 10 11 11 10 9 7 7 8 9 11 12 12 12 11 11 16 17 16 17 18 18 18 17 17 17 16 16 15 17 17 17 17 17 18 18 17
1 1 1 1 1 3 3 3 3 3 4 8 10 10 10 9 7 7 7 8 11 11 10 14 13 14 16 16 16 17 18 18 17 18 16 15 17 16 17 16 17 17 17 17 17 18 17
2 2 1 1 1 1 3 3 2 3 3 4 6 8 10 10 6 7 7 8 9 9 9 13 14 14 15 16 14 17 17 17 17 16 15 16 16 16 15 15 16 17 17 17 17 17 17
2 2 2 2 1 1 1 3 3 2 3 2 4 6 6 7 6 7 7 9 8 8 8 12 14 15 15 15 14 16 17 18 16 15 15 16 17 16 16 16 16 17 17 16 17 16 16
1 1 2 2 2 1 1 1 2 2 2 2 2 4 5 5 6 7 7 8 9 8 9 12 12 14 14 16 15 17 18 18 16 16 14 16 15 16 17 17 17 17 17 16 16 17 18
2 2 2 2 2 2 1 1 1 3 2 2 2 3 4 5 6 7 8 8 9 8 10 14 12 14 14 16 17 16 18 18 16 15 16 17 16 16 16 17 16 18 16 16 17 16 16
2 2 1 2 2 2 2 1 2 2 3 2 2 2 2 4 5 8 8 8 9 10 9 14 13 13 13 15 16 15 17 18 17 15 15 16 15 16 17 16 16 16 16 15 14 15 16
2 2 2 2 1 2 2 2 1 2 2 2 1 1 2 4 4 8 7 7 8 9 13 14 13 13 14 14 15 15 15 15 16 15 15 15 16 16 16 17 16 16 16 16 16 15 16
2 2 2 2 2 1 2 2 2 1 2 2 1 1 2 2 4 6 6 7 8 10 12 14 14 13 14 14 15 15 14 16 14 15 14 16 15 16 16 18 18 16 17 16 15 15 16
2 2 2 2 2 2 1 2 2 1 2 2 2 2 2 2 4 5 6 7 10 10 12 13 14 14 14 14 15 15 14 16 15 15 16 14 15 15 15 16 17 16 16 15 13 10 14
2 2 2 2 2 2 2 1 2 2 2 2 1 1 1 2 3 5 6 9 10 11 13 13 14 14 13 13 14 15 13 14 15 14 16 15 16 15 16 16 15 16 15 16 14 14 14
2 2 2 2 1 1 1 1 1 2 2 1 1 1 2 2 4 5 7 8 10 11 13 13 12 13 13 13 14 13 14 15 15 14 15 14 16 15 15 16 17 15 16 13 15 13 15
1 1 1 2 2 2 1 1 1 2 2 0 1 1 3 3 4 6 6 9 10 11 12 12 12 12 13 13 12 13 15 16 15 14 15 14 14 14 16 15 15 15 16 15 15 14 11
1 1 0 1 1 2 1 1 1 2 1 1 1 2 3 3 4 6 8 9 9 10 11 11 12 12 13 13 14 13 13 15 14 14 14 13 13 14 15 15 15 16 15 13 12 11 12
1 1 1 1 1 1 1 1 1 1 1 1 1 2 2 2 6 7 7 8 8 9 10 12 11 12 13 13 12 13 13 13 14 14 15 15 12 14 15 16 15 15 14 13 14 13 14
0 0 0 1 1 0 1 1 1 1 1 0 1 3 3 3 4 6 8 8 8 8 10 11 10 11 12 12 13 13 13 13 12 12 12 15 14 13 14 14 15 15 15 13 15 14 15
-0 0 0 1 1 1 1 1 1 0 0 0 1 3 5 5 5 5 7 7 8 9 10 10 11 11 12 12 13 13 13 13 13 11 12 11 14 13 13 12 13 14 14 13 14 13 14
-0 0 -0 0 1 1 1 1 1 0 -0 0 1 4 5 5 5 5 6 7 8 9 9 11 10 10 10 12 13 13 13 14 13 13 11 11 10 11 13 11 13 12 12 14 13 13 14
-0 -0 -0 0 1 1 0 1 0 0 1 0 1 3 4 5 5 5 6 8 8 9 9 10 11 10 11 12 13 12 11 11 10 10 11 9 10 9 10 9 12 15 12 13 14 14 13
-0 -0 -1 -0 0 -0 0 1 -0 0 -0 0 1 3 4 4 6 6 6 7 8 9 9 10 10 11 12 12 11 11 9 11 9 9 9 9 8 8 10 11 12 13 13 13 13 16 14
0 -0 -0 0 1 1 1 1 0 0 0 0 1 2 3 4 4 7 7 7 7 7 7 8 10 11 11 7 7 10 11 11 10 10 8 7 8 11 7 12 12 14 13 12 13 13 13
-0 0 0 0 0 0 0 1 0 -0 0 -0 1 2 2 3 4 5 7 7 7 8 6 7 10 9 10 5 7 8 10 10 10 10 9 9 7 10 7 11 11 11 12 13 13 16 12
0 1 1 1 1 1 0 0 0 -0 0 -0 0 1 1 1 2 4 6 6 7 7 7 7 8 8 5 7 7 8 7 9 10 10 9 11 10 9 7 9 13 11 11 13 13 14 13
1 1 1 1 1 0 0 0 0 -0 0 -0 -1 0 1 1 1 2 3 4 4 8 8 9 9 8 8 7 5 5 6 4 9 11 9 11 11 12 12 12 12 12 14 15 15 15 13